User: anonymous   Login
Location: Mactaquac Provincial Park
(45.9573°N, 66.8897°W)
Time: 22:30:13
(UTC-03:00)
Language:

Cosmos 1867 - Orbit

View from above orbital plane
View from above orbital plane
View from above satellite
View from above satellite

Ground track
Ground track

The orbit data is extracted from the following two-line orbital elements,

1 18187U 87060A   16274.20027541 -.00000115  00000-0 -54311-5 0  9995
2 18187  65.0099 236.3985 0019780 261.2006  98.6838 14.31078687526790
Epoch (UTC): 30 September 2016 04:48:23
Eccentricity: 0.0019780
inclination: 65.0099°
perigee height: 774 km
apogee height: 802 km
right ascension of ascending node: 236.3985°
argument of perigee: 261.2006°
revolutions per day: 14.31078687
mean anomaly at epoch: 98.6838°
orbit number at epoch: 52679

The dashed part of the orbit path shows where the satellite is in the earth's shadow,  

DLR